User: anonymous   Login
Location: Goudex
(43.3760°N, 0.9543°E)
Time: 12:22:25
(UTC+00:00)
Language:

Meteor 2-3 Rocket - Orbit

View from above orbital plane
View from above orbital plane
View from above satellite
View from above satellite

Ground track
Ground track

The orbit data is extracted from the following two-line orbital elements,

1 10515U 77117B   20021.19607278  .00000142  00000-0  74632-4 0  9993
2 10515  81.2419  77.3330 0031292  83.0324 277.4404 14.08699038163274
Epoch (UTC): 21 January 2020 04:42:20
Eccentricity: 0.0031292
inclination: 81.2419°
perigee height: 841 km
apogee height: 886 km
right ascension of ascending node: 77.3330°
argument of perigee: 83.0324°
revolutions per day: 14.08699038
mean anomaly at epoch: 277.4404°
orbit number at epoch: 16327

The dashed part of the orbit path shows where the satellite is in the earth's shadow,  

DLR